DECAYED

PSLV R/B, 44104 (Decayed)

Orbit data source: Space-Track

PSLV R/B, 44104 was space debris in LEO originally from a launch on Mon, 01 Apr 2019 UTC via a PSLV-QL launch vehicle from the Sirharikota (SRI). Debris objects in space refer to the collection of defunct objects orbiting the Earth. Examples of debris include non-operational satellites, rocket bodies, and fragments generated from explosions, collisions, or faulty payload assembly.

Not visible in the next 10 days
Identifier
44104, 2019-018AC
Orbit
Decayed
Last TLE update
1 year ago
Origin
Manufacturer
ISRO SAC/Banga
Mission
Decayed Civil Technology
Bus & Motor
PS-4 OP, Unknown motor
Mass
~20 kg wet, ~20 kg dry
Launch date (UTC)
2019-04-01 (6 years ago)
Launch vehicle
PSLV-QL
Launch site
Sirharikota (SRI)
Object type
Payload
Rocket body
Debris
Shape & HBR
Box + Box, 0.3 m
Radar Cross Section
0.075 m², Large (>1 m²)

Expand to show TLE details & history

TLE from 1 year ago
0 PSLV R/B
1 44104U 19018AC  24182.30226727  .75017961  27951-5  13042-3 0  9996
2 44104  97.3313 295.7289 0014430 174.9294 243.0071 16.64608738295003
Epoch: 2024-06-30T07:15Z
TLE epoch observation values (Epoch: 2024-06-30T07:15:15.892Z)
Latitude
57.16302°
Longitude
-103.37182°
Altitude
115.088 km
Speed
7.84 km/s
True Right ascension
18h 57m 11s
True Declination
56° 59' 26"
Sunlit
Object was in daylight at epoch
Visualization orbit readout
Visualization observer readout
Orbital elements
Apogee altitude
107.265 km
Perigee altitude
88.575 km
Semi-major axis
6,476.057 km
Eccentricity
0.00144
Inclination
97.3313°
RAAN
295.7289°
Arg. of periapsis
174.9294°
True anomaly
Unknown
Mean anomaly
243.0071°
Eccentric anomaly
Unknown
Mean motion
4.16464 °/min
Orbital period
86.44 mins
BSTAR
0.00013042
Loading maneuver chart data...
Loading SW <> Apogee altitude chart data...

PSLV R/B Visibility

Observer location: undefined°, undefined°

This satellite is decayed
Span
Click to sort rows by Start time (UTC) header in descending order
Start Az.
Max El. time (UTC)
Max El. Az.
Max El.
End time (UTC)
End Az.
|